Location: Gwatt
(46.7204°N, 7.6223°E)
Time: 06:50:04
(UTC+00:00)

Tiros 1 despin weight - Pass Details

Date: 27 January 2021
Orbit: 593 x 642 km, 48.2° (Epoch: 06 March)

Event Time Altitude Azimuth Distance (km) Brightness Sun altitude
Rises 17:44:26 0° 287° (WNW) 2,865 ? -13.5°
Reaches altitude 10° 17:46:48 10° 282° (WNW) 1,951 ? -13.9°
Maximum altitude 17:51:06 48° 208° (SSW) 783 ? -14.6°
Enters shadow 17:55:16 10° 134° (SE) 1,894 ? -15.4°
